K5LRY-13 Weather Reports


Display with metric or nautical units.
time (UTC)temp
F
wind
direction
speed
MPH
gust
MPH
rain 1hr
in
rain 24hr
in
rain mn
in
humidity
%
barometer
mb
20260509134829 39 153 0.0 0.0 0.00 0.00 0.00 62 1026.1
20260509133325 37 153 0.0 0.0 0.00 0.00 0.00 66 1025.8
20260509131839 36 153 0.0 0.0 0.00 0.00 0.00 66 1025.9
20260509130312 36 153 0.0 0.0 0.00 0.00 0.00 66 1025.8
20260509124848 36 153 0.0 0.0 0.00 0.00 0.00 64 1025.5
20260509123323 35 153 0.0 0.0 0.00 0.00 0.00 64 1025.3
20260509121816 36 153 0.0 0.0 0.00 0.00 0.00 63 1025.2
20260509120311 36 153 0.0 0.0 0.00 0.00 0.00 60 1025.2
20260509114826 37 153 0.0 0.0 0.00 0.00 0.00 59 1025.2
20260509113322 38 153 0.0 0.0 0.00 0.00 0.00 57 1024.9
20260509111814 39 153 0.0 0.0 0.00 0.00 0.00 54 1024.8
20260509110329 40 153 0.0 0.0 0.00 0.00 0.00 51 1024.6
20260509104823 40 153 1.0 3.0 0.00 0.00 0.00 50 1024.6
20260509103339 41 153 0.0 2.0 0.00 0.00 0.00 49 1024.5
20260509101813 41 153 0.0 3.0 0.00 0.00 0.00 49 1024.4
20260509100320 41 153 0.0 2.0 0.00 0.00 0.00 49 1024.4
20260509094814 41 153 0.0 6.0 0.00 0.00 0.00 49 1024.5
20260509093313 40 154 1.0 3.0 0.00 0.00 0.00 50 1024.5
20260509091827 41 154 2.0 3.0 0.00 0.00 0.00 49 1024.5
20260509090320 41 154 1.0 5.0 0.00 0.00 0.00 48 1024.4
20260509084817 42 154 3.0 6.0 0.00 0.00 0.00 47 1024.5
20260509083314 42 154 2.0 5.0 0.00 0.00 0.00 47 1024.5
20260509081816 43 154 0.0 3.0 0.00 0.00 0.00 46 1024.6
20260509080330 43 154 1.0 3.0 0.00 0.00 0.00 44 1024.8
20260509074824 45 154 0.0 3.0 0.00 0.00 0.00 42 1024.9
20260509073322 46 154 0.0 3.0 0.00 0.00 0.00 39 1025.0
20260509071825 48 154 0.0 3.0 0.00 0.00 0.00 36 1025.0
20260509070320 50 154 0.0 5.0 0.00 0.00 0.00 32 1025.2
20260509064835 49 153 2.0 9.0 0.00 0.00 0.00 33 1025.3
20260509063358 48 193 0.0 6.0 0.00 0.00 0.00 35 1025.2
20260509061850 47 193 4.0 7.0 0.00 0.00 0.00 36 1025.3
20260509060323 46 182 1.0 4.0 0.00 0.00 0.00 38 1025.4
20260509054815 47 182 2.0 5.0 0.00 0.00 0.00 38 1025.6
20260509053331 47 182 3.0 8.0 0.00 0.00 0.00 39 1025.3
20260509051824 47 184 0.0 2.0 0.00 0.00 0.00 37 1025.3
20260509050346 47 264 0.0 6.0 0.00 0.00 0.00 36 1025.6
20260509044819 47 264 2.0 6.0 0.00 0.00 0.00 37 1025.7
20260509043314 47 265 1.0 3.0 0.00 0.00 0.00 37 1025.8
20260509041827 47 266 1.0 4.0 0.00 0.00 0.00 37 1025.9
20260509040313 48 266 1.0 6.0 0.00 0.00 0.00 35 1026.0
20260509034834 48 264 3.0 4.0 0.00 0.00 0.00 35 1025.9
20260509033322 49 263 0.0 2.0 0.00 0.00 0.00 36 1025.8
20260509031814 51 264 0.0 1.0 0.00 0.00 0.00 32 1025.6
20260509030312 53 264 0.0 1.0 0.00 0.00 0.00 27 1025.6
20260509024826 54 264 0.0 6.0 0.00 0.00 0.00 28 1025.6
20260509023322 55 264 1.0 3.0 0.00 0.00 0.00 25 1025.4
20260509021815 58 264 0.0 1.0 0.00 0.00 0.00 22 1025.3
20260509020329 61 264 0.0 4.0 0.00 0.00 0.00 20 1025.1
20260509014823 62 264 1.0 4.0 0.00 0.00 0.00 18 1025.1
20260509013339 63 268 4.0 9.0 0.00 0.00 0.00 16 1025.0
20260509011826 65 248 3.0 12.0 0.00 0.00 0.00 16 1024.9
20260509010318 67 280 4.0 10.0 0.00 0.00 0.00 14 1025.1
20260509004812 68 170 5.0 13.0 0.00 0.00 0.00 14 1025.0
20260509003329 68 287 7.0 16.0 0.00 0.00 0.00 13 1025.2
20260509001822 69 253 7.0 15.0 0.00 0.00 0.00 13 1025.0
20260509000318 71 247 2.0 12.0 0.00 0.00 0.00 13 1024.9
20260508234851 72 270 4.0 12.0 0.00 0.00 0.00 12 1024.8
20260508233326 72 244 2.0 13.0 0.00 0.00 0.00 12 1024.8
20260508231819 72 249 5.0 12.0 0.00 0.00 0.00 12 1024.6
20260508230334 72 283 1.0 14.0 0.00 0.00 0.00 15 1024.8
20260508224827 71 272 7.0 13.0 0.00 0.00 0.00 12 1024.9
20260508223323 70 300 1.0 12.0 0.00 0.00 0.00 13 1024.9
20260508221836 68 247 6.0 18.0 0.00 0.00 0.00 13 1025.1
20260508220350 70 269 9.0 17.0 0.00 0.00 0.00 13 1025.1
20260508214849 70 280 3.0 10.0 0.00 0.00 0.00 14 1025.1
20260508213317 70 291 5.0 16.0 0.00 0.00 0.00 15 1025.3
20260508211835 71 294 3.0 15.0 0.00 0.00 0.00 14 1025.4
20260508210323 70 243 5.0 15.0 0.00 0.00 0.00 14 1025.4
20260508204845 68 253 4.0 11.0 0.00 0.00 0.00 15 1025.4
20260508203313 69 255 4.0 16.0 0.00 0.00 0.00 19 1025.7
20260508201826 70 253 4.0 10.0 0.00 0.00 0.00 15 1025.6
20260508200323 69 177 4.0 13.0 0.00 0.00 0.00 19 1026.1
20260508194815 68 233 5.0 12.0 0.00 0.00 0.00 17 1026.0
20260508193330 67 216 7.0 22.0 0.00 0.00 0.00 18 1025.9
20260508191845 67 226 7.0 14.0 0.00 0.00 0.00 19 1026.0
20260508190318 66 268 4.0 10.0 0.00 0.00 0.00 17 1026.1
20260508184859 66 260 6.0 19.0 0.00 0.00 0.00 17 1026.1
20260508183333 66 185 3.0 13.0 0.00 0.00 0.00 24 1026.0
20260508181819 65 260 4.0 16.0 0.00 0.00 0.00 18 1026.5
20260508180313 65 274 5.0 19.0 0.00 0.00 0.00 18 1026.6
20260508174835 64 203 5.0 21.0 0.00 0.00 0.00 23 1026.5
20260508173322 63 287 8.0 15.0 0.00 0.00 0.00 19 1026.9
20260508171835 63 122 7.0 21.0 0.00 0.00 0.00 20 1026.9
20260508170327 62 50 4.0 13.0 0.00 0.00 0.00 21 1026.6
20260508164848 61 274 6.0 12.0 0.00 0.00 0.00 20 1027.0
20260508163344 61 268 5.0 15.0 0.00 0.00 0.00 21 1026.6
20260508161816 60 168 7.0 14.0 0.00 0.00 0.00 23 1026.4
20260508160328 59 255 7.0 14.0 0.00 0.00 0.00 22 1026.5
20260508154823 59 197 5.0 13.0 0.00 0.00 0.00 25 1026.5
20260508153317 57 186 4.0 9.0 0.00 0.00 0.00 27 1026.3
20260508151829 56 206 5.0 10.0 0.00 0.00 0.00 27 1026.2
20260508150344 55 210 1.0 6.0 0.00 0.00 0.00 30 1026.1
20260508144837 54 210 2.0 5.0 0.00 0.00 0.00 28 1025.8
20260508143331 52 206 3.0 6.0 0.00 0.00 0.00 31 1026.1
20260508141824 49 233 1.0 7.0 0.00 0.00 0.00 37 1025.9
20260508140319 45 185 3.0 6.0 0.00 0.00 0.00 40 1025.8